Location: Finkenwalde
(53.3770°N, 14.6418°E)
Time: 03:48:39
(UTC+00:00)

CZ-4 R/B - Pass Details

Date: 05 February 2023
Orbit: 526 x 587 km, 97.7° (Epoch: 24 March)

Event Time Altitude Azimuth Distance (km) Brightness Sun altitude
Rises 16:19:01 0° 112° (ESE) 2,795 4.5 -4.6°
Reaches altitude 10° 16:22:03 10° 87° (E) 1,888 3.4 -5.0°
Maximum altitude 16:24:12 14° 55° (NE) 1,633 3.1 -5.3°
Drops below altitude 10° 16:26:19 10° 24° (NNE) 1,875 3.6 -5.6°
Sets 16:29:19 0° 359° (N) 2,761 4.7 -6.0°
